Charlotte, NC

4:13 PM EDT on May 23, 2017 (GMT -0400)
Charlotte-Douglas International

Weather History for KCLT - February, 2014

Change the Weather History Date:

Tuesday, February 18, 2014

  Actual Average Record
Temperature  
Mean Temperature 47 °F 44 °F  
Max Temperature 65 °F 56 °F 78 °F (1891)
Min Temperature 28 °F 33 °F 5 °F (1958)
Degree Days  
Heating Degree Days 18 21  
Month to date heating degree days 407 400  
Since 1 July heating degree days 2540 2507  
Cooling Degree Days 0 0  
Month to date cooling degree days 0 0  
Year to date cooling degree days 0 0  
Moisture  
Dew Point 30 °F    
Average Humidity 54    
Maximum Humidity 85    
Minimum Humidity 22    
Precipitation  
Precipitation 0.00 in 0.12 in 1.89 in (1883)
Month to date precipitation 2.31 2.03  
Year to date precipitation 5.22 5.44  
Snow  
Snow 0.00 in 0.10 in 10.00 in (1979)
Month to date snowfall 8.4 0.8  
Since 1 July snowfall 9.3 3.3  
Snow Depth 0.00 in    
Sea Level Pressure  
Sea Level Pressure 30.16 in    
Wind  
Wind Speed 4 mph (South)    
Max Wind Speed 12 mph    
Max Gust Speed 14 mph    
Visibility 10 miles    
Events      
T = Trace of Precipitation, MM = Missing Value Source: NWS Daily Summary

Daily Weather History Graph

Daily Weather History Graph

Search for Another Location

Airport or City:

Trip Planner

Search our weather history database for the weather conditions in past years. The results will help you decide how hot, cold, wet, or windy it might be!

Date:

Astronomy

Feb. 18, 2014 Rise Set
Actual Time 7:06 AM EST 6:09 PM EST
Civil Twilight 6:40 AM EST 6:34 PM EST
Nautical Twilight 6:11 AM EST 7:04 PM EST
Astronomical Twilight 5:41 AM EST 7:34 PM EST
Moon 9:50 PM EST (2/18) 8:47 AM EST (2/18)
Length of Visible Light 11h 54m
Length of Day
11h 02m
Waning Gibbous, 87% of the Moon is Illuminated
Feb 18
Waning Gibbous
Feb 22
Last Quarter
Mar 1
New
Mar 8
First Quarter
Mar 16
Full

Hourly Weather History & Observations

Time (EST) Temp. Windchill Dew Point Humidity Pressure Visibility Wind Dir Wind Speed Gust Speed Precip Events Conditions
12:19 AM 41.0 °F 39.0 °F 28.4 °F 61% 30.18 in 10.0 mi North 3.5 mph - N/A   Overcast
12:52 AM 41.0 °F 37.1 °F 28.9 °F 62% 30.20 in 10.0 mi North 5.8 mph - N/A   Overcast
1:27 AM 41.0 °F 39.0 °F 28.4 °F 61% 30.18 in 10.0 mi East 3.5 mph - N/A   Overcast
1:52 AM 39.0 °F 34.8 °F 28.9 °F 67% 30.16 in 10.0 mi SE 5.8 mph - N/A   Scattered Clouds
2:44 AM 37.4 °F 33.8 °F 28.4 °F 70% 30.12 in 10.0 mi SSE 4.6 mph - N/A   Mostly Cloudy
2:52 AM 37.9 °F 35.5 °F 28.9 °F 70% 30.13 in 10.0 mi South 3.5 mph - N/A   Overcast
3:39 AM 37.4 °F - 30.2 °F 75% 30.11 in 10.0 mi Calm Calm - N/A   Overcast
3:52 AM 39.0 °F - 30.0 °F 70% 30.12 in 10.0 mi Calm Calm - N/A   Overcast
4:32 AM 33.8 °F 30.8 °F 28.4 °F 81% 30.13 in 10.0 mi NNW 3.5 mph - N/A   Scattered Clouds
4:52 AM 33.1 °F 28.7 °F 28.9 °F 85% 30.14 in 10.0 mi North 4.6 mph - N/A   Scattered Clouds
5:09 AM 33.8 °F 29.6 °F 28.4 °F 81% 30.14 in 10.0 mi North 4.6 mph - N/A   Overcast
5:26 AM 35.6 °F 32.8 °F 30.2 °F 81% 30.15 in 10.0 mi NNW 3.5 mph - N/A   Overcast
5:52 AM 33.1 °F - 28.9 °F 85% 30.17 in 10.0 mi Calm Calm - N/A   Mostly Cloudy
6:18 AM 35.6 °F - 28.4 °F 75% 30.16 in 10.0 mi Calm Calm - N/A   Partly Cloudy
6:52 AM 32.0 °F - 28.0 °F 85% 30.18 in 10.0 mi Calm Calm - N/A   Clear
7:52 AM 36.0 °F - 30.0 °F 79% 30.21 in 10.0 mi Calm Calm - N/A   Partly Cloudy
8:52 AM 44.1 °F - 32.0 °F 63% 30.22 in 10.0 mi Calm Calm - N/A   Partly Cloudy
9:52 AM 48.0 °F - 34.0 °F 58% 30.23 in 10.0 mi SW 4.6 mph - N/A   Partly Cloudy
10:52 AM 54.0 °F - 28.9 °F 38% 30.23 in 10.0 mi WNW 5.8 mph - N/A   Clear
11:52 AM 57.9 °F - 23.0 °F 26% 30.22 in 10.0 mi Variable 3.5 mph - N/A   Clear
12:52 PM 60.1 °F - 23.0 °F 24% 30.20 in 10.0 mi Calm Calm - N/A   Clear
1:52 PM 61.0 °F - 21.9 °F 22% 30.18 in 10.0 mi Calm Calm - N/A   Partly Cloudy
2:52 PM 63.0 °F - 24.1 °F 23% 30.16 in 10.0 mi South 8.1 mph - N/A   Scattered Clouds
3:52 PM 64.9 °F - 27.0 °F 24% 30.15 in 10.0 mi SSW 5.8 mph - N/A   Scattered Clouds
4:52 PM 63.0 °F - 30.0 °F 29% 30.15 in 10.0 mi South 8.1 mph - N/A   Mostly Cloudy
5:52 PM 59.0 °F - 30.9 °F 35% 30.14 in 10.0 mi South 5.8 mph - N/A   Mostly Cloudy
6:52 PM 55.9 °F - 32.0 °F 40% 30.14 in 10.0 mi South 6.9 mph - N/A   Scattered Clouds
7:52 PM 48.9 °F - 33.1 °F 54% 30.13 in 10.0 mi SSE 5.8 mph - N/A   Scattered Clouds
8:52 PM 53.1 °F - 36.0 °F 52% 30.12 in 10.0 mi SSE 8.1 mph - N/A   Scattered Clouds
9:52 PM 50.0 °F - 36.0 °F 59% 30.10 in 10.0 mi SE 5.8 mph - N/A   Mostly Cloudy
10:52 PM 52.0 °F - 37.0 °F 57% 30.08 in 10.0 mi SSE 5.8 mph - N/A   Overcast
11:52 PM 50.0 °F - 37.9 °F 63% 30.07 in 10.0 mi South 4.6 mph - N/A   Overcast